Regional Weather Roundup
Issued by NWS Northern Indiana

Home | Current Version | Previous Version | Text Only | Print | Product List | Glossary On
Versions: 1 2 3 4 5 6 7 8 9 10 11 12 13 14 15 16 17 18 19 20 21 22 23 24 25 26 27 28 29 30 31 32 33 34 35 36 37 38 39 40 41 42 43 44 45 46 47 48 49 50
000
ASUS43 KIWX 231110
RWRIWX

KIWX WEATHER ROUNDUP
NATIONAL WEATHER SERVICE NORTHERN INDIANA
700 AM EDT MON APR 23 2018

NOTE: "FAIR" INDICATES FEW OR NO CLOUDS BELOW 12,000 FEET WITH NO
SIGNIFICANT WEATHER AND/OR OBSTRUCTIONS TO VISIBILITY.

* THESE STATIONS ARE NOT UNDER NWS QUALITY CONTROL. THEY ALSO MAY NOT
  REPORT WEATHER SUCH AS PRECIPITATION OR FOG.

INZ001>027-231200-
NORTHERN INDIANA

CITY           SKY/WX    TMP DP  RH WIND       PRES   REMARKS
GARY*          MOCLDY    43  32  65 NE3       30.20S
VALPARAISO     FAIR      41  27  57 NE7       30.18S
MICHIGAN CITY* FAIR      39  27  60 CALM      30.20S
LAPORTE*       FAIR      44  24  46 NE8       30.19S
KNOX*          FAIR      37  28  70 NE6       30.17S
SOUTH BEND     FAIR      42  22  44 NE5       30.20F
ELKHART*       FAIR      43  23  45 E7        30.20
GOSHEN         FAIR      40  25  55 NE5       30.18F
MONTICELLO*    FAIR      44  26  49 E6        30.13S
LOGANSPORT*    FAIR      43  28  56 NE8       30.14S
ROCHESTER*     FAIR      45  28  53 NE5       30.17R
WARSAW*        FAIR      41  28  60 NE6       30.17S
AUBURN*        FAIR      41  30  65 NE7       30.19S
FORT WAYNE     MOCLDY    40  30  67 NE9       30.18S
HUNTINGTON*    FAIR      40  28  62 E7        30.17R
MARION*        FAIR      42  29  58 E12G18    30.14R

$$
INZ028>050-231200-
CENTRAL INDIANA

CITY           SKY/WX    TMP DP  RH WIND       PRES   REMARKS
LAFAYETTE      FAIR      45  28  51 E12       30.12R
KOKOMO*        FAIR      41  30  65 NE10      30.14R
MUNCIE*        FAIR      43  30  60 E3        30.14R
INDIANAPOLIS   CLOUDY    51  31  46 NE10      30.09R

$$
MIZ043>046-050>051-056>058-064>065-071>073-077>080-231200-
SOUTHWEST LOWER MICHIGAN

CITY           SKY/WX    TMP DP  RH WIND       PRES   REMARKS
BATTLE CREEK   FAIR      42  24  49 E7        30.24R
BENTON HARBOR  FAIR      42  23  46 NE6       30.22S
COLDWATER*     FAIR      39  24  56 NE7       30.21F
HILLSDALE*     FAIR      39  27  60 E7        30.22R
HOLLAND        FAIR      41  27  57 NE7       30.26R
GRAND RAPIDS   MOCLDY    38  26  62 NE8       30.26S
KALAMAZOO      FAIR      41  23  48 NE5       30.24R
STURGIS*       FAIR      42  25  51 NE9       30.19F
THREE RIVERS*  FAIR      41  26  53 NE6       30.22S

$$
OHZ001>008-015>018-024>025-231200-
NORTHWEST OHIO

CITY           SKY/WX    TMP DP  RH WIND       PRES   REMARKS
WAUSEON*       FAIR      41  30  65 NE12G17   30.22S
DEFIANCE       FAIR      40  30  67 NE7       30.20F
FINDLAY        FAIR      43  28  55 NE9       30.18S
TOLEDO EXPRESS FAIR      41  35  79 NE7       30.21S
TOLEDO METCALF FAIR      43  35  73 NE8       30.23S
LIMA           FAIR      39  30  70 E7        30.17R

$$
AND FOR LAKE MICHIGAN COASTAL AND OPEN LAKE BUOY OBSERVATIONS

STATION/POSITION TEMP    WIND        PRES    VSBY  WAVE
                 AIR SEA DIR/SP/G                  HT/PER
                 (F)     (DEG/KT/KT) (MB)    (MI)  (FT/S)
CALUMET HARBOR    41     350/  9/ 11 1022.2F
MICHIGAN CITY     42      40/  8/  8   N/A
BURNS HARBOR      43      80/  7/  8 1023.0S
SAINT JOSEPH      42      40/  2/  4 1024.0

$$
&&



USA.gov is the U.S. government's official web portal to all federal, state and local government web resources and services.